World > North America > United States > Oregon

Imnaha, Oregon Regional Weather

Lat: 45.56N, Lon: 116.83W
Wx Zone: ORZ050Web Search

If you are on your PC, you can easily pass this page to your phone by scanning the QR Code near the bottom with your camera.

Feedback


°F Click to change Imnaha hourly weather to Imperial units.Click to change Imnaha hourly weather to Metric units. °C
Imnaha Weather Map
UTC Time: 5/9/2021, 08:22
Your Time:

Imnaha, OR Regional Weather

Expires:202105090900;;828548
ASUS46 KPQR 090810
RWROR 

OREGON REGIONAL WEATHER ROUNDUP
NATIONAL WEATHER SERVICE PORTLAND OR
100 AM PDT SUN MAY 09 2021

NOTE: "FAIR" INDICATES FEW OR NO CLOUDS BELOW 12,000 FEET WITH
NO SIGNIFICANT WEATHER AND/OR OBSTRUCTIONS TO VISIBILITY.


ORZ029>031-041-044-049-050-061>064-502-503-505>511-090900-
EASTERN OREGON

  
CITY           SKY/WX    TMP DP  RH WIND       PRES   REMARKS
MADRAS         PTCLDY    37  32  81 NW6       30.27F                  
REDMOND        CLEAR     34  28  79 SE3       30.25S                  
BEND           MOCLDY    39  32  75 CALM      30.27S                  
PRINEVILLE     MOCLDY    37  32  81 CALM      30.26S                  
KLAMATH FALLS  CLEAR     43  33  68 NE7       30.21S                  
LAKEVIEW       CLEAR     40  28  62 N10       30.21S                  
HERMISTON      PTCLDY    50  36  58 SW10      30.22F                  
PENDLETON      PTCLDY    48  35  60 W17       30.22R                  
JOHN DAY       PTCLDY    40  31  71 N3        30.22S                  
MEACHAM        NOT AVBL                                               
LA GRANDE      MOCLDY    44  28  53 NW10      30.21F                  
BAKER CITY     CLEAR     36  25  64 N7        30.20F                  
BURNS          PTCLDY    34  23  64 NW6       30.20S                  
ROME             N/A     45  22  40 N8        30.15F                  
ONTARIO        CLEAR     51  23  33 N14       30.17S                  
$$


OTHER REGIONAL REPORTS
  
CITY           SKY/WX    TMP DP  RH WIND       PRES   REMARKS
SEATTLE        CLOUDY    51  44  77 CALM      30.31S                  
SPOKANE        MOCLDY    45  27  49 S7        30.13S                  
VANCOUVER BC   MOCLDY    50  43  76 NE5       30.31S                  
PRINCE GEORGE  PTCLDY    36  30  80 CALM      30.13R                  
DAWSON CREEK   CLEAR     41  25  52 SW6       30.09R                  
WHITEHORSE     CLOUDY    41  30  65 SE9       29.96S                  
BOISE          CLEAR     42  21  43 CALM      30.14S                  
REDDING        CLEAR     69  35  28 N13       30.05F                  
SAN FRANCISCO  CLEAR     58  43  57 W17       29.97F                  

$$

  

SKY/WX - Weather  TMP - Temperature  DP - Dew Point  RH - Relative Humidity
WIND - Wind Direction/Speed PRES - Barometric Pressure VSB - Visibility
WCI - Wind Chill Index E13G22 Wind - East Wind 13 mph/Gusts of 22 mph